This is the latest recevied weather packets stored in our database for station/object HS2XQB-3. If no packets are shown the sender has not sent any weather packets the latest 10 day(s).
| Time | Temp. | Humidity | Pressure | Rain* | Wind** | Luminosity | Snow |
|---|---|---|---|---|---|---|---|
| 1777808053 | 23.89° C | 58% | 1003 hPa | - | - | 0 W/m² | - |
| 1777806232 | 25° C | 58% | 1003 hPa | - | - | 0 W/m² | - |
| 1777804409 | 23.89° C | 46% | 1002 hPa | - | - | 0 W/m² | - |
| 1777802587 | 23.89° C | 44% | 1001 hPa | - | - | 0 W/m² | - |
| 1777800764 | 25° C | 43% | 1001 hPa | - | - | 0 W/m² | - |
| 1777798942 | 25° C | 43% | 1001 hPa | - | - | 0 W/m² | - |
| 1777797119 | 26.11° C | 42% | 1001 hPa | - | - | 0 W/m² | - |
| 1777795297 | 27.22° C | 42% | 1002 hPa | - | - | 0 W/m² | - |
| 1777793475 | 27.22° C | 42% | 1002 hPa | - | - | 0 W/m² | - |
| 1777791653 | 26.67° C | 43% | 1003 hPa | - | - | 0 W/m² | - |
| 1777789831 | 26.67° C | 42% | 1003 hPa | - | - | 0 W/m² | - |
| 1777788009 | 26.67° C | 42% | 1004 hPa | - | - | 0 W/m² | - |
| 1777786187 | 26.11° C | 43% | 1005 hPa | - | - | 0 W/m² | - |
| 1777784365 | 26.11° C | 43% | 1005 hPa | - | - | 0 W/m² | - |
| 1777782543 | 25.56° C | 44% | 1006 hPa | - | - | 0 W/m² | - |
| 1777780721 | 25° C | 45% | 1006 hPa | - | - | 0 W/m² | - |
| 1777778899 | 25.56° C | 57% | 1006 hPa | - | - | 0 W/m² | - |
| 1777777077 | 24.44° C | 48% | 1007 hPa | - | - | 0 W/m² | - |
| 1777775254 | 24.44° C | 47% | 1007 hPa | - | - | 0 W/m² | - |
| 1777773432 | 24.44° C | 52% | 1006 hPa | - | - | 0 W/m² | - |
| 1777771610 | 25° C | 47% | 1006 hPa | - | - | 0 W/m² | - |
| 1777769787 | 24.44° C | 51% | 1006 hPa | - | - | 0 W/m² | - |
| 1777767967 | 25° C | 62% | 1006 hPa | - | - | 0 W/m² | - |
| 1777766143 | 23.89° C | 68% | 1005 hPa | - | - | 0 W/m² | - |
| 1777764320 | 23.33° C | 71% | 1005 hPa | - | - | 0 W/m² | - |
* Rain since midnight (hover to see other rain measurements)
** Current wind speed in m/s (hover to see current wind gust speed)